Aérodrome :
LOGIN :

S'inscrire | Disclaimer

   EN    FR    IT 

 










Légende :    VFR   VFR Marginal   IFR   IFR Intensif   IFR Très Intensif
Visi : 
Plafond : 
>= 8 km
>= 3000ft
5 à 8 km
1000 à 3000 ft
1500m à 5 km
500 à 1000 ft
800 à 1500m
200 à 500 ft
< 800m
< 200 ft
Symboles :   Orages  Brouillard  Fortes neiges  Fortes précipitations  Vent > 20 kt
SIGMETs :   Divers  Orages  Givrage  Turbulence  Onde Orograph.  Cendres Volcan.






- Altitude de l'aérodrome : 17 ft
- Code IATA : MPL


LFMT - Montpellier Méditerranée

DERNIER METAR :
  • 051930Z AUTO 04007KT CAVOK 12/03 Q1018 NOSIG

METARs EXPIRÉS :
  • 051900Z AUTO 04006KT 010V070 CAVOK 14/04 Q1018 NOSIG
  • 051830Z AUTO 04008KT 9999 ///TCU 14/04 Q1018 BECMG NSC
  • 051800Z AUTO 05006KT CAVOK 14/08 Q1017 NOSIG
  • 051730Z AUTO 00000KT CAVOK 15/09 Q1017 NOSIG
  • 051700Z AUTO 25006KT CAVOK 15/09 Q1017 NOSIG

TAF TAF LFMT
Valide du 05 à 15h jusqu'au 06 à 15h UTC


051400Z 0515/0615 22010KT CAVOK
BECMG 0517/0520 04005KT
BECMG 0522/0524 36010KT
BECMG 0606/0608 BKN018
BECMG 0610/0612 06010KT
ATIS : +33 4 67 13 11 70



MET'MAP, la Météo Aéronautique d'un coup d'oeil ! - Copyright ORBIFLY Décembre 2007 - Disclaimer

ORBIFLY MET'MAP TEAM :

Programmation & Développement : Alexandra Zaïnal
Sur une idée originale de : Baudouin d'Aumeries
Assistance à la programmation : Marc-Olivier Méhu
Soutien technique & logistique : Manuel Goepfert

Contact : metmap@orbifly.com




SOURCES & CREDITS :

   NOAA